Change the Weather History Date:

Monday, January 26, 2015

  Actual Average Record
Temperature  
Mean Temperature 16 °F 24 °F  
Max Temperature 25 °F 31 °F 62 °F (1944)
Min Temperature 7 °F 17 °F -20 °F (1897)
Degree Days  
Heating Degree Days 49 41  
Month to date heating degree days 1114 1058  
Since 1 July heating degree days 3534 3449  
Cooling Degree Days 0 0  
Month to date cooling degree days 0 0  
Year to date cooling degree days 0 0  
Moisture  
Dew Point 11 °F    
Average Humidity 72    
Maximum Humidity 84    
Minimum Humidity 59    
Precipitation  
Precipitation T in 0.07 in 2.12 in (1967)
Month to date precipitation 1.83 1.97  
Year to date precipitation 1.83 1.97  
Snow  
Snow T in 0.70 in 15.60 in (1978)
Month to date snowfall 21.3 17.2  
Since 1 July snowfall 40.8 39.7  
Snow Depth 2.00 in    
Sea Level Pressure  
Sea Level Pressure 29.98 in    
Wind  
Wind Speed 4 mph (ESE)    
Max Wind Speed 13 mph    
Max Gust Speed 15 mph    
Visibility 10 miles    
Events      
T = Trace of Precipitation, MM = Missing Value Source: NWS Daily Summary

Daily Weather History Graph

Daily Weather History Graph

Search for Another Location

Airport or City:

Trip Planner

Search our weather history database for the weather conditions in past years. The results will help you decide how hot, cold, wet, or windy it might be!

Date:

Astronomy

Jan. 26, 2015 Rise Set
Actual Time 8:03 AM EST 5:52 PM EST
Civil Twilight 7:33 AM EST 6:22 PM EST
Nautical Twilight 6:59 AM EST 6:56 PM EST
Astronomical Twilight 6:26 AM EST 7:29 PM EST
Moon 11:40 AM EST (1/26) 12:21 AM EST (1/26)
Length of Visible Light 10h 49m
Length of Day
9h 49m
Waxing Crescent, 45% of the Moon is Illuminated
Jan 26
Waxing Crescent
Jan 26
First Quarter
Feb 3
Full
Feb 11
Last Quarter
Feb 18
New

Hourly Weather History & Observations

Time (EST) Temp. Windchill Dew Point Humidity Pressure Visibility Wind Dir Wind Speed Gust Speed Precip Events Conditions
12:54 AM 19.0 °F 10.0 °F 10.0 °F 68% 29.99 in 10.0 mi NE 6.9 mph - N/A   Clear
1:54 AM 17.1 °F 5.8 °F 9.0 °F 71% 29.99 in 10.0 mi NE 9.2 mph - N/A   Clear
2:54 AM 15.1 °F 9.4 °F 8.1 °F 74% 30.01 in 10.0 mi NE 3.5 mph - N/A   Clear
3:54 AM 14.0 °F - 7.0 °F 74% 30.00 in 10.0 mi Calm Calm - N/A   Clear
4:54 AM 12.9 °F 6.9 °F 7.0 °F 77% 29.98 in 10.0 mi East 3.5 mph - N/A   Clear
5:54 AM 9.0 °F -0.9 °F 5.0 °F 84% 30.01 in 10.0 mi NW 5.8 mph - N/A   Clear
6:54 AM 8.1 °F -2.0 °F 3.9 °F 83% 30.01 in 10.0 mi NNW 5.8 mph - N/A   Clear
7:54 AM 10.0 °F 0.4 °F 5.0 °F 80% 30.01 in 10.0 mi North 5.8 mph - N/A   Clear
8:54 AM 12.9 °F 6.9 °F 8.1 °F 81% 30.01 in 10.0 mi NE 3.5 mph - N/A   Clear
9:54 AM 15.1 °F 9.4 °F 10.0 °F 80% 29.99 in 10.0 mi East 3.5 mph - N/A   Clear
10:54 AM 18.0 °F - 10.0 °F 71% 30.01 in 10.0 mi Calm Calm - N/A   Clear
11:54 AM 19.9 °F 13.4 °F 10.9 °F 68% 29.99 in 10.0 mi SE 4.6 mph - N/A   Clear
12:54 PM 21.0 °F 13.4 °F 10.0 °F 63% 29.96 in 10.0 mi SSW 5.8 mph - N/A   Partly Cloudy
1:54 PM 23.0 °F - 10.9 °F 60% 29.94 in 10.0 mi Calm Calm - N/A   Overcast
2:54 PM 25.0 °F - 14.0 °F 63% 29.93 in 10.0 mi Calm Calm - N/A   Overcast
3:54 PM 25.0 °F - 12.9 °F 60% 29.95 in 10.0 mi Calm Calm - N/A   Overcast
4:54 PM 24.1 °F - 12.9 °F 62% 29.94 in 10.0 mi Calm Calm - N/A   Overcast
5:54 PM 24.1 °F 17.0 °F 15.1 °F 69% 29.94 in 10.0 mi South 5.8 mph - N/A   Partly Cloudy
6:54 PM 24.1 °F 14.4 °F 15.1 °F 69% 29.96 in 10.0 mi SE 9.2 mph - N/A   Overcast
7:54 PM 24.1 °F 17.0 °F 14.0 °F 65% 29.98 in 10.0 mi SSE 5.8 mph - N/A   Overcast
8:54 PM 24.1 °F 17.0 °F 15.1 °F 69% 29.98 in 10.0 mi ESE 5.8 mph - N/A   Overcast
9:54 PM 24.1 °F 16.0 °F 15.1 °F 69% 29.98 in 10.0 mi SSE 6.9 mph - N/A   Overcast
10:54 PM 24.1 °F 16.0 °F 15.1 °F 69% 29.97 in 10.0 mi SE 6.9 mph - N/A   Overcast
11:54 PM 24.1 °F 16.0 °F 15.1 °F 69% 29.97 in 10.0 mi SE 6.9 mph - N/A   Overcast